Location: Les Cours
(44.7533°N, 2.0791°E)
Time: 10:09:45
(UTC+00:00)

Daily predictions for brighter satellites

Satellite Brightness Start Highest point End
(mag) Time Altitude Azimuth Time Altitude Azimuth Time Altitude Azimuth
IRAS Rocket 4.3 19:37:41 10° SSE 19:43:08 73° ENE 19:48:38 10° NNW
SL-16 R/B 3.8 19:39:13 10° N 19:43:33 22° NE 19:47:51 10° E
SL-24 R/B 4.3 19:40:23 10° NNE 19:44:42 64° ESE 19:49:30 10° S
Okean 1 Rocket 3.3 19:42:46 10° SSW 19:47:10 78° W 19:51:37 10° N
Cosmos 2233 Rocket 4.5 19:44:05 10° SSE 19:49:47 40° E 19:55:27 10° NNE
Cosmos 2084 Rocket 3.7 19:47:11 10° NNW 19:51:20 56° NE 19:55:31 10° SE
COSMOS 2406 4.0 19:51:43 10° SSE 19:56:40 31° ESE 20:01:38 10° NE
Cosmos 1782 2.7 19:55:06 10° S 19:58:29 49° E 20:01:55 10° NNE
Okean-O 3.6 19:55:13 10° SE 19:59:01 30° ENE 20:02:50 10° N
CZ-4B R/B 4.3 19:55:13 10° S 19:59:12 64° WSW 20:03:13 10° NNW
CZ-4 R/B 1.4 19:55:39 10° S 19:59:15 68° W 20:02:53 10° NNW
MetOp-B 4.2 19:54:14 10° SSE 19:59:31 68° ENE 20:04:51 10° N
Cosmos 1980 Rocket 2.4 19:53:58 10° NNW 19:59:41 79° WSW 20:05:21 10° SSE
CSL-04 Rocket 4.5 19:58:58 10° S 20:04:19 54° W 20:09:39 10° NNW
ASTEX 1 4.1 20:00:29 10° S 20:05:20 56° W 20:10:13 10° NNW
Spot 2 Rocket 4.0 20:02:12 10° SE 20:06:55 44° ENE 20:11:41 10° N
Cosmos 1725 Rocket 4.0 20:02:05 10° S 20:08:20 81° E 20:14:36 10° N
Cosmos 2333 Rocket 3.4 20:06:39 10° N 20:11:37 30° NE 20:16:16 11° ESE
ATLAS 3B R/B 3.9 20:05:20 10° NW 20:12:28 43° WSW 20:19:10 10° S
ERS-1 Rocket 3.1 20:07:53 10° S 20:12:53 80° WSW 20:17:55 10° NNW
USA 305 3.7 20:15:10 10° WNW 20:18:55 35° SW 20:21:49 13° SSE
Tsikada Rocket 4.0 20:13:24 10° N 20:19:32 65° E 20:25:37 10° SSE
Cosmos 2016 Rocket 4.1 20:16:41 10° S 20:22:57 86° W 20:29:10 10° N
Cosmos 1461 3.0 20:21:06 10° S 20:24:34 39° ESE 20:28:02 10° NE
Cosmos 2360 Rocket 3.7 20:20:53 10° N 20:25:24 23° NE 20:29:39 11° E
CZ-4B R/B 3.4 20:20:18 10° S 20:25:57 78° WSW 20:31:35 10° NNW
CZ-4C R/B 4.0 20:24:40 10° W 20:28:32 29° NW 20:33:19 10° NNE
Cosmos 1992 Rocket 3.9 20:24:03 10° S 20:29:13 71° ESE 20:34:25 10° NNE
Meteor 2-12 Rocket 4.4 20:25:43 10° N 20:31:50 89° E 20:37:56 10° S
YAOGAN 11 4.2 20:31:07 10° NNE 20:35:32 61° ESE 20:39:57 10° S
ISS -1.6 20:33:00 10° WNW 20:35:54 27° N 20:38:48 10° NE
Cosmos 1437 Rocket 3.2 20:36:40 22° SE 20:38:22 36° E 20:41:40 10° NNE
Cosmos 2219 Rocket 4.0 20:34:36 10° N 20:38:40 20° NE 20:42:44 10° E
Gbstr 26 Del rocket 4.5 20:40:30 10° WNW 20:44:49 29° SW 20:47:30 16° S
SL-08 R/B 3.6 20:41:02 10° N 20:45:51 71° WNW 20:50:31 10° SSW
DEBRIS 3.9 20:42:59 10° W 20:45:53 54° N 20:53:57 10° ENE
Cosmos 2098 Rocket 4.2 20:44:23 21° SE 20:46:15 28° E 20:49:58 10° NNE
NOSS 3-3 (A) 4.1 20:42:35 10° SW 20:47:41 66° NW 20:53:47 10° NE
Cosmos 1626 Rocket 3.5 20:43:52 10° N 20:48:15 71° E 20:51:00 22° SSE
Cosmos 1743 4.5 20:46:19 10° NW 20:48:41 21° W 20:51:02 10° SW
Terra 3.0 20:46:12 10° SSW 20:50:33 38° W 20:54:57 10° NNW
Cosmos 2151 2.9 20:52:09 10° N 20:56:14 61° E 20:58:09 29° SSE
Cosmos 2322 Rocket 3.0 20:52:12 10° NNW 20:57:33 40° ENE 21:00:46 21° ESE
Cosmos 909 Rocket 4.4 20:51:42 10° SW 20:57:59 68° NW 21:04:27 10° NNE
Cosmos 2061 Rocket 4.2 20:51:50 10° SSW 20:58:02 75° W 21:04:21 10° N
Cosmos 2082 Rocket 3.4 20:54:10 10° SW 20:59:37 44° WNW 21:05:05 10° NNE
Cosmos 1606 Rocket 4.4 21:03:17 28° ESE 21:04:14 30° E 21:08:01 10° NNE
Cosmos 2369 4.5 20:59:21 10° NW 21:04:49 46° WSW 21:09:06 16° S
Cosmos 1375 Rocket 4.5 20:59:35 10° SSW 21:06:03 84° ESE 21:12:40 10° NE
CZ-4B R/B 2.3 21:09:42 44° SSE 21:10:37 74° ENE 21:14:04 10° N
USA 186 2.8 21:11:04 25° SW 21:11:58 33° W 21:14:30 10° NNW
Cosmos 540 Rocket 4.4 21:13:16 27° ESE 21:14:01 28° E 21:18:23 10° NE
Okean O Rocket 2.5 21:11:15 17° SSW 21:14:14 43° W 21:18:21 10° NNW
Cosmos 1805 2.8 21:18:58 10° N 21:22:11 56° E 21:22:21 55° E
DELTA 2 R/B (1) 3.8 21:16:53 10° W 21:22:13 48° S 21:24:09 34° SE
Cosmos 2278 3.7 21:17:57 10° NNW 21:23:43 84° ENE 21:26:23 33° SSE
Cosmos 1544 Rocket 4.3 21:22:19 13° SSW 21:25:58 50° WNW 21:30:12 10° N
Meteor 1-5 Rocket 4.3 21:20:58 10° N 21:26:43 67° ENE 21:29:21 33° SSE
CZ-2C R/B 2.4 21:27:14 51° NE 21:27:14 51° NE 21:29:37 10° N
SL-16 R/B 2.3 21:22:33 10° NNW 21:28:13 72° WSW 21:30:55 32° S
Okean 1-7 Rocket 3.7 21:24:57 10° N 21:29:23 60° E 21:30:35 43° SE
Cosmos-2242 4.3 21:34:03 24° E 21:34:03 24° E 21:37:05 10° NE
NOSS 3-4 (A) 3.9 21:27:36 10° NW 21:34:25 78° NE 21:38:39 30° SE
NOSS 3-4 (C) 3.9 21:28:15 10° NW 21:35:05 78° NE 21:39:18 30° SE
Okean-O 4.3 21:32:20 14° SSW 21:35:15 27° W 21:39:01 10° NW
Cosmos 2034 Rocket 4.3 21:32:54 33° SE 21:35:27 51° E 21:41:33 10° NNE
Cosmos 1933 4.3 21:37:02 21° SW 21:39:12 41° WNW 21:42:50 10° N
Ariane Rocket 3.1 21:38:06 35° S 21:40:14 73° WSW 21:45:19 10° NNW
COSMOS 2406 4.4 21:35:17 10° SW 21:40:45 44° WNW 21:46:15 10° NNE
SPOT 3 Rocket 4.1 21:41:43 28° SSW 21:44:14 52° W 21:49:16 10° NNW
Nadezhda 4 Rocket 3.9 21:47:30 10° N 21:53:40 86° W 21:56:12 38° S
Helios 1B rocket 3.8 21:55:11 22° ENE 21:55:11 22° ENE 21:57:40 10° NNE
Cosmos 1763 Rocket 3.4 21:53:12 43° S 21:54:58 74° ESE 22:00:14 10° NNE
Cosmos 2333 Rocket 2.8 21:50:39 10° NW 21:56:07 49° WSW 21:58:17 33° SSW
Okean 1 2.9 21:56:18 83° WNW 21:56:18 83° WNW 21:59:51 10° N
Cosmos 1707 4.3 21:59:51 18° NE 21:59:51 18° NE 22:00:47 10° NNE
Cosmos 1825 Rocket 3.5 21:54:12 10° N 21:58:34 80° W 21:59:17 61° SSW
Cosmos 1634 Rocket 4.5 21:57:45 37° ESE 21:59:11 43° E 22:04:59 10° NNE
Cosmos 1536 4.0 21:56:23 10° NNE 21:59:12 28° ENE 21:59:12 28° ENE
Cosmos 1833 4.1 21:57:58 36° SSW 22:00:24 80° ESE 22:06:04 10° NNE
Cosmos 2297 Rocket 4.4 22:01:44 10° E 22:01:44 10° E 22:02:05 10° E
Cosmos 1953 Rocket 3.4 22:00:20 10° N 22:04:40 68° E 22:04:56 66° ESE
Cosmos 44 4.2 21:59:57 10° NNW 22:05:10 46° NE 22:06:56 34° E
Cosmos 990 Rocket 3.9 22:00:37 10° NNW 22:05:48 74° ENE 22:06:54 54° SE
CZ-4B R/B 4.4 22:05:27 28° SW 22:07:06 37° W 22:11:34 10° NNW
Cosmos 2360 Rocket 2.3 22:04:14 10° NNW 22:09:52 65° WSW 22:11:23 46° S
Cosmos 2195 Rocket 4.4 22:05:40 10° N 22:11:55 89° E 22:13:53 46° S
USA 290 3.5 22:12:10 36° WNW 22:12:10 36° WNW 22:15:05 10° N
ISS -1.8 22:10:25 10° NW 22:13:22 28° N 22:14:19 24° NE
Cosmos 2058 Rocket 3.2 22:14:25 58° E 22:14:25 58° E 22:18:31 10° NNE
BREEZE-M DEB (TANK) 4.1 22:12:24 10° WNW 22:13:11 16° NW 22:13:11 16° NW
Cosmos 2026 Rocket 4.0 22:09:54 10° N 22:16:20 82° E 22:18:17 48° SSE
Cosmos 2333 4.3 22:11:54 10° NNW 22:17:36 68° WSW 22:19:00 50° S
Cosmos 1627 Rocket 4.5 22:13:35 10° N 22:20:01 83° E 22:21:56 49° SSE
Helios 1A 2.9 22:18:59 10° NNE 22:22:30 69° NE 22:22:30 69° NE
Cosmos 2219 Rocket 2.1 22:17:37 10° NNW 22:23:18 81° WSW 22:24:29 57° S
Cosmos 841 Rocket 4.4 22:28:15 34° E 22:28:15 34° E 22:32:28 10° NE
Cosmos 1076 Rocket 3.9 22:23:43 10° NNW 22:27:51 51° W 22:28:03 51° WSW
Cosmos 1503 Rocket 4.4 22:23:48 10° NNW 22:28:47 49° WSW 22:29:38 45° SW
ARIANE 5 R/B 3.6 22:32:16 36° ENE 22:32:26 36° ENE 22:36:32 10° N
RESURS DK-1 3.6 22:28:58 10° N 22:32:32 30° NE 22:32:35 30° ENE
ALOS 2 3.8 22:33:58 31° ENE 22:34:08 31° ENE 22:38:00 10° N
Cosmos 2322 Rocket 3.2 22:36:25 10° NW 22:41:28 34° WSW 22:42:34 31° SW
Cosmos 1354 Rocket 4.2 22:38:04 10° NNW 22:43:11 55° WSW 22:43:43 52° SW
Cosmos 1271 Rocket 4.1 22:46:13 29° NNE 22:46:13 29° NNE 22:48:03 10° NNE
Cosmos 372 Rocket 3.8 22:42:24 10° NNW 22:47:31 75° ENE 22:47:53 71° ESE
Spot 4 4.0 22:51:57 58° E 22:52:07 58° ENE 22:56:50 10° N
Meteor 2-9 Rocket 4.2 22:49:57 10° N 22:55:20 64° ENE 22:55:55 59° ESE
Cosmos 2237 Rocket 3.5 22:55:03 10° N 23:00:07 31° NE 23:02:16 24° E
CZ-2C R/B 4.1 22:58:57 23° E 23:00:21 25° ENE 23:04:33 10° N
Aureole 1 Rocket 4.1 22:55:32 10° NNW 23:01:27 67° WSW 23:02:46 54° SSW
Cosmos 1092 Rocket 4.4 22:57:40 10° NNW 23:03:38 53° W 23:05:07 43° SW
Cosmos 2142 Rocket 4.4 23:05:17 60° SSE 23:06:18 72° E 23:12:30 10° NNE
ARGOS Delta rocket 4.0 23:01:13 10° NNE 23:06:24 66° E 23:06:31 66° ESE
Cosmos 2180 Rocket 4.4 23:06:37 60° SE 23:07:36 70° E 23:13:53 10° NNE
Cosmos 1937 Rocket 3.6 23:04:01 10° NNW 23:09:07 63° ENE 23:09:26 61° E
Cosmos 2227 Rocket 4.0 23:11:04 17° E 23:11:04 17° E 23:14:08 10° ENE
Cosmos-2242 4.4 23:10:18 27° W 23:10:36 28° WNW 23:14:10 10° NNW
COSMOS 2428 2.6 23:05:47 10° NNW 23:11:31 81° ENE 23:12:10 70° SE
NOSS 0 Rocket 4.0 23:07:56 10° NNW 23:14:05 68° ENE 23:15:26 53° ESE
Meteor 1-11 Rocket 3.8 23:09:33 10° N 23:15:09 61° ENE 23:15:45 57° ESE
Meteor 1-10 Rocket 4.2 23:17:23 65° SE 23:17:57 69° E 23:23:53 10° NNE
MetOp-A 4.5 23:18:10 45° E 23:18:26 46° ENE 23:22:57 10° N
Cosmos 2263 Rocket 4.3 23:20:54 13° E 23:20:54 13° E 23:22:50 10° ENE
Cosmos 1812 Rocket 3.8 23:25:18 65° NNE 23:25:18 65° NNE 23:29:07 10° N
Cosmos 1238 Rocket 4.4 23:25:54 28° ENE 23:25:54 28° ENE 23:28:39 10° NNE
Helios 1B rocket 4.3 23:29:08 19° WNW 23:29:08 19° WNW 23:30:42 10° NW
SeaSat 1 4.3 23:28:37 17° E 23:31:02 24° NE 23:34:57 10° N
USA 234 3.1 23:26:24 10° NE 23:32:58 75° SE 23:34:29 55° SSW
Meteor 1-27 Rocket 3.9 23:32:34 58° ESE 23:32:59 60° E 23:38:39 10° NNE
Cosmos 2221 3.2 23:35:23 47° NW 23:35:23 47° NW 23:38:54 10° N
CZ-2C R/B 3.4 23:29:39 10° NNE 23:35:23 62° E 23:35:47 60° ESE
ACS3 Solar Sail 3.2 23:31:47 10° NE 23:36:26 23° E 23:37:20 22° ESE
Cosmos 1898 Rocket 3.9 23:37:31 10° NNW 23:42:13 49° W 23:42:13 49° W
Cosmos 2297 Rocket 2.0 23:43:29 77° SE 23:43:43 78° ESE 23:49:23 10° NNE
Meteor 2-20 4.3 23:46:32 69° S 23:47:22 89° WNW 23:53:29 10° N
ISS -0.7 23:47:08 10° WNW 23:47:15 11° WNW 23:47:15 11° WNW
